Location: Deer Lodge Site
(39.6809°N, 119.9392°W)
Time: 06:43:34
(UTC-07:00)

Amateur Radio Satellites - All Passes

Search period start: 26 August 2016 06:13
Search period end: 27 August 2016 06:13
Location: Deer Lodge Site, 39.6809°N, 119.9392°W

Satellite Date Start Highest point End Downlink Frequencies (MHz)
Time Altitude Azimuth
PHONESAT 2.4 26 Aug 06:15:23 06:18:23 89° 164° (SSE) 06:21:23 2401.200-2431.200
Cubesat XI-IV 26 Aug 06:16:15 06:19:49 18° 92° (E) 06:23:22 437.490
RS-15 26 Aug 06:24:01 06:32:29 21° 353° (N) 06:41:07 29.354- 29.394
CUTE-I 26 Aug 06:28:10 06:32:24 24° 94° (E) 06:36:37 437.470
STRAND 1 26 Aug 06:28:36 06:32:35 24° 66° (ENE) 06:36:35 437.568
NOAA 15 26 Aug 06:34:47 06:39:38 35° 98° (E) 06:44:28 137.62
AO-85 26 Aug 06:41:11 06:46:23 55° 305° (NW) 06:51:20 145.980
NOAA 18 26 Aug 06:53:03 06:58:04 36° 98° (E) 07:03:02 137.9125
Cosmos 2491 26 Aug 06:56:02 07:04:23 49° 271° (W) 07:12:44 435.465 / 435.565
GOMX 1 26 Aug 06:57:34 07:02:51 49° 98° (E) 07:07:52 467.674
BRITE-PL 26 Aug 07:12:27 07:18:04 59° 287° (WNW) 07:23:34 437.365/2234.400
LilacSat-2 26 Aug 07:12:37 07:16:25 72° 103° (ESE) 07:20:09 437.200
DOVE 4 26 Aug 07:13:25 07:17:53 30° 95° (E) 07:22:06 437.250
Cosmos 2504 26 Aug 07:30:55 07:39:02 50° 90° (E) 07:46:38 435.465 / 435.565
HORYU 2 26 Aug 07:35:18 07:37:15 13° 297° (WNW) 07:39:12 437.375
CANX-2 26 Aug 07:45:02 07:46:55 13° 91° (E) 07:48:48 2200.000
AO-7 26 Aug 07:48:51 07:50:07 10° 317° (NW) 07:51:24 29.400- 29.500
HO-68 26 Aug 07:49:41 07:54:59 22° 93° (E) 08:00:13 435.675
CUTE 1.7 + AOD 2 26 Aug 07:51:24 07:53:23 13° 91° (E) 07:55:20 437.475
PHONESAT 2.4 26 Aug 07:51:58 07:54:32 26° 206° (SSW) 07:57:07 2401.200-2431.200
PRISM 26 Aug 07:54:52 07:57:24 16° 65° (ENE) 07:59:58 437.425
Cubesat XI-IV 26 Aug 07:55:01 08:00:12 54° 289° (WNW) 08:05:21 437.490
SO-50 26 Aug 07:56:15 07:59:12 17° 42° (NE) 08:02:07 436.795
CINEMA 3 26 Aug 08:06:43 08:10:34 27° 94° (E) 08:14:16 145.822/145.860
STRAND 1 26 Aug 08:06:43 08:11:31 40° 262° (W) 08:16:19 437.568
CUTE-I 26 Aug 08:07:37 08:12:34 41° 291° (WNW) 08:17:31 437.470
YUBILEINY 26 Aug 08:09:39 08:17:47 40° 287° (WNW) 08:25:59 435.215
NOAA 15 26 Aug 08:14:46 08:19:15 29° 294° (WNW) 08:23:45 137.62
AO-85 26 Aug 08:27:00 08:27:52 10° 324° (NW) 08:28:43 145.980
NOAA 18 26 Aug 08:33:54 08:38:35 30° 294° (WNW) 08:43:14 137.9125
GOMX 1 26 Aug 08:36:26 08:40:29 22° 296° (WNW) 08:44:25 467.674
CUBEBUG 2 26 Aug 08:36:47 08:39:08 15° 91° (E) 08:41:28 437.445
RS-15 26 Aug 08:40:38 08:50:54 29° 29° (NNE) 09:01:06 29.354- 29.394
ISS 26 Aug 08:42:07 08:44:37 20° 132° (SE) 08:47:06 145.825
DOVE 4 26 Aug 08:51:06 08:55:28 29° 292° (WNW) 08:59:37 437.250
SEEDS 26 Aug 09:00:40 09:04:50 58° 101° (E) 09:08:58 437.485
CANX-2 26 Aug 09:18:56 09:23:02 50° 286° (WNW) 09:27:09 2200.000
TIGRISAT 26 Aug 09:22:02 09:24:47 16° 65° (ENE) 09:27:31 435.000
Cosmos 2504 26 Aug 09:25:06 09:32:33 33° 287° (WNW) 09:39:39 435.465 / 435.565
CUTE 1.7 + AOD 2 26 Aug 09:25:23 09:29:28 49° 286° (WNW) 09:33:34 437.475
PRISM 26 Aug 09:28:32 09:32:22 39° 261° (W) 09:36:15 437.425
SO-50 26 Aug 09:35:36 09:40:11 68° 240° (WSW) 09:44:36 436.795
HO-68 26 Aug 09:36:06 09:43:12 67° 289° (WNW) 09:50:16 435.675
AAUSAT CUBESAT 2 26 Aug 09:36:28 09:40:39 82° 103° (ESE) 09:44:49 437.432
AIST 1 26 Aug 09:41:22 09:45:38 63° 95° (E) 09:49:59
CUSAT 1 26 Aug 09:42:30 09:47:32 24° 72° (ENE) 09:53:17 437.405
COMPASS 1 26 Aug 09:42:58 09:47:07 65° 285° (WNW) 09:51:15 437.405
CINEMA 3 26 Aug 09:43:50 09:47:37 26° 292° (WNW) 09:51:16 145.822/145.860
BEESAT 3 26 Aug 09:47:27 09:50:51 29° 114° (ESE) 09:54:18 437.485
UNISAT 6 26 Aug 09:48:36 09:52:40 31° 70° (ENE) 09:56:40 437.425
DELFI C3 26 Aug 09:54:38 09:57:28 19° 94° (E) 10:00:19 145.870
Oscar 11 26 Aug 10:04:53 10:09:11 64° 101° (ESE) 10:13:27 145.826/435.025
FUNcube-1 26 Aug 10:10:16 10:14:25 68° 102° (ESE) 10:18:30 145.935
CUBEBUG 2 26 Aug 10:11:58 10:16:01 42° 287° (WNW) 10:19:56 437.445
UWE-3 26 Aug 10:12:47 10:16:57 64° 285° (WNW) 10:21:02 435.000/436.395/437.385
ISS 26 Aug 10:17:45 10:20:52 42° 328° (NNW) 10:24:02 145.825
DANDE 26 Aug 10:24:45 10:28:24 18° 73° (ENE) 10:32:39 436.750
ANTELSAT 26 Aug 10:24:59 10:29:37 77° 75° (ENE) 10:34:09 437.575/2403.000
ZACube-1 26 Aug 10:30:54 10:35:02 63° 285° (WNW) 10:39:06 437.345
GONETS M04 26 Aug 10:34:49 10:37:00 11° 73° (ENE) 10:39:11
SEEDS 26 Aug 10:38:21 10:40:01 12° 296° (WNW) 10:41:41 437.485
QB50P1 26 Aug 10:42:24 10:45:08 17° 66° (ENE) 10:47:51 145.935-145.965
POPSAT HIP 1 26 Aug 10:51:44 10:54:54 21° 67° (ENE) 10:58:05 437.405
RS-15 26 Aug 10:53:27 11:05:54 76° 56° (NE) 11:18:04 29.354- 29.394
TIGRISAT 26 Aug 10:56:33 11:01:04 51° 260° (W) 11:05:31 435.000
BEESAT 2 26 Aug 11:03:06 11:07:01 75° 302° (WNW) 11:11:00 435.950
PCSat 26 Aug 11:04:49 11:07:11 13° 103° (ESE) 11:09:34 145.827
DUCHIFAT 1 26 Aug 11:20:24 11:24:18 37° 72° (ENE) 11:28:15 145.980
QB50P2 26 Aug 11:20:40 11:24:45 46° 73° (ENE) 11:28:52 145.880/145.840
AIST 1 26 Aug 11:22:44 11:23:42 11° 292° (WNW) 11:24:42
POLYITAN 1 26 Aug 11:23:10 11:27:17 46° 73° (ENE) 11:31:24 437.675
CUSAT 1 26 Aug 11:23:26 11:29:43 63° 264° (W) 11:37:16 437.405
BEESAT 3 26 Aug 11:25:18 11:28:31 24° 311° (NW) 11:31:45 437.485
UNISAT 6 26 Aug 11:25:35 11:29:21 24° 265° (W) 11:33:06 437.425
HO-68 26 Aug 11:26:46 11:29:35 13° 309° (NW) 11:32:24 435.675
DELFI C3 26 Aug 11:28:49 11:32:21 31° 289° (WNW) 11:35:53 145.870
HUMSAT D 26 Aug 11:30:32 11:34:35 66° 284° (WNW) 11:38:37 437.325/437.525
NANOSAT C BR1 26 Aug 11:33:09 11:37:19 56° 74° (ENE) 11:41:31 145.865
Oscar 11 26 Aug 11:43:15 11:44:45 12° 297° (WNW) 11:46:15 145.826/435.025
ESTCUBE 1 26 Aug 11:47:07 11:51:01 28° 96° (E) 11:54:53 437.505/2401.250
AUBIESAT-1 26 Aug 11:53:06 11:56:51 35° 102° (ESE) 12:00:18 437.475
ISS 26 Aug 11:56:25 11:58:02 13° 347° (NNW) 11:59:39 145.825
M-CUBED/EXP-1 PRIME 26 Aug 11:57:17 12:01:22 50° 105° (ESE) 12:05:04 437.505
AISAT 26 Aug 12:01:56 12:05:25 22° 95° (E) 12:08:51 437.250
JAS-2 26 Aug 12:02:22 12:07:23 54° 71° (ENE) 12:12:41 435.910
DANDE 26 Aug 12:05:54 12:11:11 65° 263° (W) 12:18:06 436.750
QB50P1 26 Aug 12:16:29 12:20:33 42° 261° (W) 12:24:38 145.935-145.965
UKube-1 26 Aug 12:19:30 12:22:14 16° 93° (E) 12:24:56 .
BUGSAT 1 26 Aug 12:21:20 12:25:34 80° 76° (ENE) 12:29:51 437.445
GONETS M04 26 Aug 12:23:22 12:32:00 69° 93° (E) 12:40:44
POPSAT HIP 1 26 Aug 12:26:35 12:30:28 33° 263° (W) 12:34:22 437.405
Oscar 19 26 Aug 12:28:57 12:32:37 20° 64° (ENE) 12:36:19 437.125/150
Cosmos 2499 26 Aug 12:32:43 12:40:50 62° 93° (E) 12:48:22 435.465 / 435.565
50 SAT 26 Aug 12:43:13 12:46:51 64° 101° (E) 12:50:28 437.505
PCSat 26 Aug 12:44:26 12:49:50 79° 299° (WNW) 12:55:18 145.827
VELOX 1 26 Aug 12:48:42 12:53:11 69° 103° (ESE) 12:57:36 145.980
CUBEBUG 1 26 Aug 12:54:37 12:59:05 81° 284° (WNW) 13:03:30 437.445
DUCHIFAT 1 26 Aug 12:57:15 13:00:07 17° 267° (W) 13:03:00 145.980
QB50P2 26 Aug 12:58:25 13:00:47 14° 268° (W) 13:03:08 145.880/145.840
POLYITAN 1 26 Aug 13:00:59 13:03:19 14° 268° (W) 13:05:37 437.675
AIST 2 26 Aug 13:02:04 13:06:09 80° 120° (ESE) 13:10:18 435.215
RS-15 26 Aug 13:07:12 13:17:14 31° 257° (WSW) 13:27:06 29.354- 29.394
DX 1 26 Aug 13:10:55 13:15:20 82° 104° (ESE) 13:19:42 434.975-435.025
NANOSAT C BR1 26 Aug 13:11:54 13:13:23 12° 269° (W) 13:14:52 145.865
AO-7 26 Aug 13:13:24 13:13:59 10° 42° (NE) 13:14:33 29.400- 29.500
SPROUT 26 Aug 13:18:58 13:23:16 78° 102° (ESE) 13:27:31 437.525
ESTCUBE 1 26 Aug 13:23:55 13:27:44 27° 291° (WNW) 13:31:31 437.505/2401.250
Gurwin Techsat 1B 26 Aug 13:26:51 13:31:31 32° 68° (ENE) 13:36:11 435.225
AUBIESAT-1 26 Aug 13:28:12 13:30:59 18° 300° (WNW) 13:33:39 437.475
M-CUBED/EXP-1 PRIME 26 Aug 13:33:10 13:35:21 14° 302° (WNW) 13:37:26 437.505
ISS 26 Aug 13:34:34 13:35:39 11° 8° (N) 13:36:44 145.825
AO-85 26 Aug 13:35:20 13:37:27 13° 40° (NE) 13:39:29 145.980
O/OREOS (USA 219) 26 Aug 13:37:23 13:40:45 21° 101° (ESE) 13:44:09 437.305
AISAT 26 Aug 13:37:55 13:41:55 33° 290° (WNW) 13:45:53 437.250
ITAMSAT 1 26 Aug 13:41:26 13:43:54 14° 60° (ENE) 13:46:23 435.822/435.867
JUGNU 26 Aug 13:43:08 13:43:33 10° 181° (S) 13:43:57 437.505
TISAT 1 26 Aug 13:43:35 13:47:15 28° 97° (E) 13:50:52 437.305
JAS-2 26 Aug 13:49:48 13:52:58 16° 270° (W) 13:56:15 435.910
UKube-1 26 Aug 13:54:21 13:58:26 42° 289° (WNW) 14:02:31 .
Oscar 19 26 Aug 14:06:33 14:11:33 50° 261° (W) 14:16:35 437.125/150
SWISSCUBE 26 Aug 14:13:14 14:15:28 13° 91° (E) 14:17:41 437.505
GONETS M04 26 Aug 14:22:40 14:29:34 25° 293° (WNW) 14:36:34
VELOX 1 26 Aug 14:27:27 14:29:02 12° 298° (WNW) 14:30:37 145.980
Cosmos 2499 26 Aug 14:27:54 14:34:22 25° 290° (WNW) 14:40:31 435.465 / 435.565
BEESAT 26 Aug 14:29:41 14:32:54 18° 93° (E) 14:36:07 436.000
PCSat 26 Aug 14:31:24 14:34:08 14° 319° (NW) 14:36:53 145.827
AIST 2 26 Aug 14:43:22 14:45:11 13° 319° (NW) 14:47:00 435.215
AO-7 26 Aug 14:56:49 15:04:41 48° 64° (ENE) 15:12:34 29.400- 29.500
Gurwin Techsat 1B 26 Aug 15:06:45 15:11:24 31° 264° (W) 15:16:05 435.225
ISS 26 Aug 15:10:07 15:13:00 27° 27° (NNE) 15:15:52 145.825
AO-85 26 Aug 15:14:16 15:18:30 75° 240° (WSW) 15:22:26 145.980
ITUPSAT 1 26 Aug 15:15:07 15:19:46 52° 100° (E) 15:24:25 437.325
O/OREOS (USA 219) 26 Aug 15:15:49 15:19:54 34° 298° (WNW) 15:24:03 437.305
ITAMSAT 1 26 Aug 15:17:31 15:22:42 77° 257° (WSW) 15:27:54 435.822/435.867
TISAT 1 26 Aug 15:19:27 15:22:44 22° 292° (WNW) 15:26:00 437.305
SWISSCUBE 26 Aug 15:48:56 15:53:38 61° 287° (WNW) 15:58:19 437.505
BEESAT 26 Aug 16:06:21 16:10:53 45° 289° (WNW) 16:15:25 436.000
YUBILEINY 26 Aug 16:24:45 16:30:53 20° 64° (ENE) 16:36:55 435.215
MOZHAYETS 4 26 Aug 16:30:50 16:35:17 49° 99° (E) 16:39:43
KKS-1 26 Aug 16:34:28 16:38:41 40° 99° (E) 16:42:51 437.445
BRITE-PL 26 Aug 16:45:49 16:49:00 17° 62° (ENE) 16:52:18 437.365/2234.400
ISS 26 Aug 16:46:27 16:49:31 36° 224° (SW) 16:52:32 145.825
AO-7 26 Aug 16:49:54 16:57:31 38° 261° (W) 17:05:11 29.400- 29.500
HORYU 2 26 Aug 16:53:47 16:58:05 51° 73° (ENE) 17:02:26 437.375
ITUPSAT 1 26 Aug 16:54:10 16:57:10 17° 296° (WNW) 17:00:11 437.325
STARS 26 Aug 17:13:43 17:18:02 52° 100° (E) 17:22:18 437.465
Cosmos 2504 26 Aug 17:26:54 17:30:16 13° 62° (ENE) 17:33:35 435.465 / 435.565
Cubesat XI-IV 26 Aug 17:37:08 17:41:39 29° 67° (ENE) 17:46:10 437.490
CUBESAT XI-V 26 Aug 17:47:32 17:51:59 40° 98° (E) 17:56:24 437.345
CUTE-I 26 Aug 17:48:59 17:53:50 37° 69° (ENE) 17:58:41 437.470
LilacSat-2 26 Aug 17:53:49 17:57:13 30° 72° (ENE) 18:00:36 437.200
NOAA 15 26 Aug 17:53:55 17:58:59 52° 71° (ENE) 18:04:06 137.62
Cosmos 2491 26 Aug 17:59:38 18:07:34 42° 87° (E) 18:15:34 435.465 / 435.565
GOMX 1 26 Aug 18:04:10 18:08:58 46° 71° (ENE) 18:14:03 467.674
BEESAT 3 26 Aug 18:05:40 18:08:14 16° 45° (NE) 18:10:47 437.485
MOZHAYETS 4 26 Aug 18:09:14 18:12:02 16° 295° (WNW) 18:14:51
KKS-1 26 Aug 18:11:49 18:14:56 19° 295° (WNW) 18:18:03 437.445
DOVE 4 26 Aug 18:17:19 18:21:44 30° 68° (ENE) 18:26:17 437.250
NOAA 18 26 Aug 18:18:18 18:23:46 64° 72° (ENE) 18:29:15 137.9125
HO-68 26 Aug 18:19:19 18:23:29 17° 54° (NE) 18:27:38 435.675
YUBILEINY 26 Aug 18:19:57 18:28:47 83° 264° (W) 18:37:28 435.215
BRITE-PL 26 Aug 18:22:15 18:26:53 55° 261° (W) 18:31:59 437.365/2234.400
HORYU 2 26 Aug 18:32:32 18:34:55 14° 268° (W) 18:37:18 437.375
STARS 26 Aug 18:51:31 18:53:56 15° 296° (WNW) 18:56:20 437.465
CINEMA 3 26 Aug 19:06:52 19:11:00 26° 68° (ENE) 19:15:06 145.822/145.860
Cubesat XI-IV 26 Aug 19:16:41 19:21:34 35° 263° (W) 19:26:27 437.490
Cosmos 2504 26 Aug 19:17:33 19:24:50 86° 82° (E) 19:32:00 435.465 / 435.565
BEESAT 2 26 Aug 19:21:48 19:25:42 47° 55° (NE) 19:29:33 435.950
CUBESAT XI-V 26 Aug 19:25:37 19:29:03 20° 294° (WNW) 19:32:30 437.345
LilacSat-2 26 Aug 19:28:59 19:31:34 17° 267° (W) 19:34:08 437.200
CUTE-I 26 Aug 19:29:26 19:33:54 27° 265° (W) 19:38:24 437.470
CUBEBUG 2 26 Aug 19:34:21 19:36:44 14° 64° (ENE) 19:39:05 437.445
NOAA 15 26 Aug 19:35:28 19:39:03 18° 267° (W) 19:42:40 137.62
BEESAT 3 26 Aug 19:42:20 19:46:11 50° 243° (WSW) 19:50:00 437.485
GOMX 1 26 Aug 19:43:34 19:47:17 21° 269° (W) 19:51:10 467.674
AIST 1 26 Aug 19:50:29 19:53:03 15° 71° (ENE) 19:55:37
SEEDS 26 Aug 19:51:34 19:55:20 34° 72° (ENE) 19:59:07 437.485
PCSat 26 Aug 19:51:55 19:54:08 12° 40° (NE) 19:56:20 145.827
DOVE 4 26 Aug 19:54:41 19:59:17 33° 265° (W) 20:04:02 437.250
Cosmos 2491 26 Aug 19:56:15 20:04:20 42° 286° (WNW) 20:12:31 435.465 / 435.565
NOAA 18 26 Aug 20:01:28 20:04:50 16° 268° (W) 20:08:14 137.9125
HO-68 26 Aug 20:02:56 20:10:09 84° 72° (ENE) 20:17:23 435.675
CANX-2 26 Aug 20:10:22 20:14:33 83° 256° (WSW) 20:18:47 2200.000
CUTE 1.7 + AOD 2 26 Aug 20:16:41 20:20:53 81° 256° (WSW) 20:25:07 437.475
STRAND 1 26 Aug 20:17:33 20:22:40 73° 103° (ESE) 20:27:44 437.568
YUBILEINY 26 Aug 20:19:42 20:24:05 15° 284° (WNW) 20:28:28 435.215
AAUSAT CUBESAT 2 26 Aug 20:25:41 20:29:36 45° 73° (ENE) 20:33:32 437.432
COMPASS 1 26 Aug 20:32:27 20:36:32 72° 76° (ENE) 20:40:40 437.405
DELFI C3 26 Aug 20:42:19 20:42:41 10° 64° (ENE) 20:43:05 145.870
CINEMA 3 26 Aug 20:43:21 20:47:56 35° 264° (W) 20:52:31 145.822/145.860
Oscar 11 26 Aug 20:58:39 21:02:43 43° 73° (ENE) 21:06:47 145.826/435.025
BEESAT 2 26 Aug 21:00:56 21:03:07 14° 251° (WSW) 21:05:17 435.950
FUNcube-1 26 Aug 21:04:28 21:08:45 47° 73° (ENE) 21:12:57 145.935
UWE-3 26 Aug 21:08:04 21:12:41 89° 83° (E) 21:17:12 435.000/436.395/437.385
CUBEBUG 2 26 Aug 21:08:11 21:12:51 62° 259° (W) 21:17:26 437.445
PRISM 26 Aug 21:10:50 21:14:26 27° 97° (E) 21:18:01 437.425
Cosmos 2504 26 Aug 21:13:39 21:17:04 14° 282° (WNW) 21:20:28 435.465 / 435.565
AIST 2 26 Aug 21:24:12 21:28:10 39° 53° (NE) 21:32:06 435.215
ZACube-1 26 Aug 21:25:07 21:29:37 87° 73° (ENE) 21:34:02 437.345
AIST 1 26 Aug 21:26:42 21:30:54 44° 268° (W) 21:35:03
SEEDS 26 Aug 21:28:18 21:31:08 18° 267° (W) 21:33:59 437.485
PCSat 26 Aug 21:33:08 21:38:34 69° 60° (ENE) 21:43:56 145.827
HO-68 26 Aug 21:54:22 21:58:37 16° 270° (W) 22:02:54 435.675
STRAND 1 26 Aug 21:58:39 22:01:12 14° 299° (WNW) 22:03:46 437.568
AAUSAT CUBESAT 2 26 Aug 22:03:20 22:05:19 13° 269° (W) 22:07:17 437.432
DELFI C3 26 Aug 22:13:07 22:17:00 61° 260° (W) 22:20:54 145.870
ANTELSAT 26 Aug 22:18:57 22:21:32 16° 92° (E) 22:24:07 437.575/2403.000
HUMSAT D 26 Aug 22:20:27 22:24:37 73° 75° (ENE) 22:28:45 437.325/437.525
Cosmos 2499 26 Aug 22:26:23 22:30:49 17° 66° (ENE) 22:35:14 435.465 / 435.565
GONETS M04 26 Aug 22:35:06 22:42:53 33° 71° (ENE) 22:50:34
Oscar 11 26 Aug 22:36:29 22:39:02 15° 268° (W) 22:41:36 145.826/435.025
AUBIESAT-1 26 Aug 22:37:00 22:41:22 44° 67° (ENE) 22:45:46 437.475
M-CUBED/EXP-1 PRIME 26 Aug 22:41:33 22:46:08 60° 69° (ENE) 22:50:47 437.505
FUNcube-1 26 Aug 22:42:39 22:45:11 15° 268° (W) 22:47:42 145.935
ESTCUBE 1 26 Aug 22:46:07 22:49:40 24° 67° (ENE) 22:53:14 437.505/2401.250
PRISM 26 Aug 22:46:16 22:49:36 23° 292° (WNW) 22:52:56 437.425
TIGRISAT 26 Aug 22:49:10 22:53:01 32° 97° (E) 22:56:50 435.000
AISAT 26 Aug 22:58:54 23:02:00 19° 66° (ENE) 23:05:06 437.250
AIST 2 26 Aug 23:03:25 23:06:21 19° 249° (WSW) 23:09:17 435.215
UKube-1 26 Aug 23:14:07 23:16:13 13° 63° (ENE) 23:18:19 .
UNISAT 6 26 Aug 23:17:10 23:21:28 75° 102° (ESE) 23:25:43 437.425
PCSat 26 Aug 23:18:17 23:21:19 15° 256° (WSW) 23:24:20 145.827
50 SAT 26 Aug 23:20:04 23:22:57 23° 70° (ENE) 23:25:52 437.505
VELOX 1 26 Aug 23:44:53 23:49:12 54° 73° (ENE) 23:53:34 145.980
O/OREOS (USA 219) 26 Aug 23:47:00 23:51:17 37° 63° (ENE) 23:55:32 437.305
SO-50 26 Aug 23:48:26 23:53:05 48° 117° (ESE) 23:57:44 436.795
CUBEBUG 1 26 Aug 23:49:19 23:53:40 74° 76° (ENE) 23:58:06 437.445
ANTELSAT 26 Aug 23:54:25 23:58:27 41° 288° (WNW) 00:02:26 437.575/2403.000
QB50P1 27 Aug 00:02:05 00:05:51 31° 97° (E) 00:09:35 145.935-145.965
DX 1 27 Aug 00:05:16 00:09:34 62° 74° (ENE) 00:13:54 434.975-435.025
BUGSAT 1 27 Aug 00:06:13 00:07:44 12° 91° (E) 00:09:16 437.445
SPROUT 27 Aug 00:11:19 00:15:30 51° 73° (ENE) 00:19:42 437.525
POPSAT HIP 1 27 Aug 00:11:51 00:15:49 39° 98° (E) 00:19:45 437.405
AUBIESAT-1 27 Aug 00:12:37 00:15:56 19° 262° (W) 00:19:17 437.475
Cosmos 2499 27 Aug 00:17:41 00:24:44 77° 265° (W) 00:31:51 435.465 / 435.565
M-CUBED/EXP-1 PRIME 27 Aug 00:18:23 00:20:57 15° 264° (W) 00:23:32 437.505
ESTCUBE 1 27 Aug 00:22:20 00:26:18 31° 263° (W) 00:30:18 437.505/2401.250
TIGRISAT 27 Aug 00:26:20 00:29:31 20° 293° (WNW) 00:32:39 435.000
CUSAT 1 27 Aug 00:28:19 00:30:54 32° 286° (WNW) 00:34:01 437.405
GONETS M04 27 Aug 00:31:30 00:40:01 54° 270° (W) 00:48:30
AISAT 27 Aug 00:33:58 00:38:09 40° 261° (W) 00:42:23 437.250
TISAT 1 27 Aug 00:34:46 00:37:55 20° 67° (ENE) 00:41:04 437.305
DUCHIFAT 1 27 Aug 00:40:28 00:44:41 78° 103° (ESE) 00:48:51 145.980
QB50P2 27 Aug 00:41:51 00:46:05 83° 284° (WNW) 00:50:17 145.880/145.840
POLYITAN 1 27 Aug 00:44:23 00:48:36 82° 285° (WNW) 00:52:48 437.675
UKube-1 27 Aug 00:47:32 00:51:46 56° 259° (W) 00:56:02 .
NANOSAT C BR1 27 Aug 00:53:53 00:58:04 68° 285° (WNW) 01:02:13 145.865
50 SAT 27 Aug 00:53:53 00:56:29 19° 265° (W) 00:59:06 437.505
JAS-2 27 Aug 00:54:51 01:01:36 59° 101° (E) 01:09:03 435.910
RS-15 27 Aug 01:15:11 01:26:04 53° 110° (ESE) 01:37:32 29.354- 29.394
DANDE 27 Aug 01:17:37 01:19:47 24° 285° (WNW) 01:22:04 436.750
SWISSCUBE 27 Aug 01:19:05 01:21:45 15° 63° (ENE) 01:24:27 437.505
VELOX 1 27 Aug 01:23:52 01:25:59 13° 269° (W) 01:28:06 145.980
O/OREOS (USA 219) 27 Aug 01:27:00 01:30:25 21° 259° (W) 01:33:49 437.305
SO-50 27 Aug 01:29:54 01:33:48 23° 314° (NW) 01:37:40 436.795
BEESAT 27 Aug 01:35:27 01:38:52 20° 65° (ENE) 01:42:17 436.000
QB50P1 27 Aug 01:38:15 01:41:26 21° 293° (WNW) 01:44:35 145.935-145.965
BUGSAT 1 27 Aug 01:39:24 01:43:26 51° 287° (WNW) 01:47:23 437.445
DX 1 27 Aug 01:44:54 01:46:08 11° 269° (W) 01:47:22 434.975-435.025
Gurwin Techsat 1B 27 Aug 01:45:24 01:47:46 13° 90° (E) 01:50:06 435.225
POPSAT HIP 1 27 Aug 01:48:32 01:51:17 17° 294° (WNW) 01:54:00 437.405
SPROUT 27 Aug 01:49:42 01:51:43 13° 269° (W) 01:53:45 437.525
PHONESAT 2.4 27 Aug 01:55:51 01:58:11 20° 152° (SSE) 02:00:31 2401.200-2431.200
TISAT 1 27 Aug 02:09:30 02:13:20 33° 263° (W) 02:17:12 437.305
Oscar 19 27 Aug 02:18:41 02:23:52 62° 101° (ESE) 02:29:00 437.125/150
ITUPSAT 1 27 Aug 02:20:52 02:25:30 55° 73° (ENE) 02:30:10 437.325
JAS-2 27 Aug 02:40:46 02:46:16 27° 295° (WNW) 02:52:12 435.910
SWISSCUBE 27 Aug 02:54:22 02:59:03 58° 259° (W) 03:03:45 437.505
AO-7 27 Aug 03:02:04 03:05:43 13° 89° (E) 03:09:22 29.400- 29.500
BEESAT 27 Aug 03:11:48 03:16:19 43° 261° (W) 03:20:51 436.000
Gurwin Techsat 1B 27 Aug 03:22:55 03:28:14 74° 286° (WNW) 03:33:31 435.225
RS-15 27 Aug 03:27:28 03:38:39 50° 314° (NW) 03:50:27 29.354- 29.394
PHONESAT 2.4 27 Aug 03:31:16 03:34:16 78° 167° (SSE) 03:37:16 2401.200-2431.200
ITAMSAT 1 27 Aug 03:31:20 03:36:11 39° 98° (E) 03:41:01 435.822/435.867
KKS-1 27 Aug 03:31:37 03:35:39 34° 70° (ENE) 03:39:42 437.445
MOZHAYETS 4 27 Aug 03:31:47 03:36:05 42° 72° (ENE) 03:40:22
Oscar 19 27 Aug 03:59:25 04:02:38 17° 298° (WNW) 04:05:52 437.125/150
ITUPSAT 1 27 Aug 04:01:03 04:03:40 15° 268° (W) 04:06:18 437.325
STARS 27 Aug 04:09:19 04:13:28 41° 72° (ENE) 04:17:40 437.465
Cosmos 2491 27 Aug 04:11:30 04:17:31 20° 64° (ENE) 04:23:29 435.465 / 435.565
CUBESAT XI-V 27 Aug 04:50:01 04:54:11 35° 71° (ENE) 04:58:24 437.345
AO-7 27 Aug 04:51:21 04:59:42 77° 106° (ESE) 05:07:59 29.400- 29.500
PHONESAT 2.4 27 Aug 05:07:40 05:10:40 74° 4° (N) 05:13:39 2401.200-2431.200
KKS-1 27 Aug 05:08:48 05:12:15 22° 265° (W) 05:15:43 437.445
MOZHAYETS 4 27 Aug 05:10:21 05:13:25 18° 267° (W) 05:16:29
ITAMSAT 1 27 Aug 05:11:17 05:15:25 25° 295° (WNW) 05:19:32 435.822/435.867
YUBILEINY 27 Aug 05:25:36 05:32:04 24° 80° (E) 05:38:33 435.215
AO-85 27 Aug 05:26:26 05:31:32 47° 116° (ESE) 05:36:24 145.980
RS-15 27 Aug 05:46:26 05:55:13 22° 346° (NNW) 06:04:14 29.354- 29.394
STARS 27 Aug 05:47:04 05:50:00 17° 267° (W) 05:52:56 437.465
Cubesat XI-IV 27 Aug 05:57:23 05:58:46 11° 89° (E) 06:00:07 437.490
STRAND 1 27 Aug 05:57:27 05:59:12 12° 60° (ENE) 06:00:57 437.568
Cosmos 2504 27 Aug 06:06:32 06:09:41 13° 77° (ENE) 06:12:46 435.465 / 435.565
